| time (UTC) | temp F | wind direction | speed knots | gust knots | rain 1hr in | rain 24hr in | rain mn in | humidity % | barometer mb |
| 20260901175503 | 99 | 92 | 0.9 | 2.6 | 0.00 | 0.00 | 0.00 | 52 | 1016.6 |
| 20260901175002 | 99 | 113 | 0.9 | 2.6 | 0.00 | 0.00 | 0.00 | 52 | 1016.7 |
| 20260901174502 | 98 | 86 | 0.9 | 3.5 | 0.00 | 0.00 | 0.00 | 52 | 1016.8 |
| 20260901173502 | 98 | 93 | 0.9 | 3.5 | 0.00 | 0.00 | 0.00 | 52 | 1016.9 |
| 20260901173003 | 99 | 108 | 0.0 | 3.5 | 0.00 | 0.00 | 0.00 | 52 | 1017.0 |
| 20260901172503 | 98 | 117 | 0.0 | 0.9 | 0.00 | 0.00 | 0.00 | 54 | 1017.1 |
| 20260901172002 | 98 | 333 | 0.0 | 1.7 | 0.00 | 0.00 | 0.00 | 56 | 1017.0 |
| 20260901171502 | 97 | 75 | 0.9 | 2.6 | 0.00 | 0.00 | 0.00 | 56 | 1017.0 |
| 20260901170502 | 97 | 76 | 0.0 | 2.6 | 0.00 | 0.00 | 0.00 | 56 | 1017.2 |
| 20260901165503 | 97 | 106 | 0.0 | 0.9 | 0.00 | 0.00 | 0.00 | 56 | 1017.3 |
| 20260901163502 | 95 | 108 | 0.0 | 1.7 | 0.00 | 0.00 | 0.00 | 59 | 1017.4 |
| 20260901162502 | 94 | 131 | 0.9 | 3.5 | 0.00 | 0.00 | 0.00 | 60 | 1017.4 |
| 20260901162003 | 94 | 125 | 0.9 | 3.5 | 0.00 | 0.00 | 0.00 | 63 | 1017.4 |
| 20260901161502 | 94 | 131 | 0.9 | 2.6 | 0.00 | 0.00 | 0.00 | 62 | 1017.4 |
| 20260901161002 | 94 | 140 | 0.0 | 1.7 | 0.00 | 0.00 | 0.00 | 61 | 1017.5 |
| 20260901160502 | 94 | 121 | 0.0 | 3.5 | 0.00 | 0.00 | 0.00 | 62 | 1017.4 |
| 20260901160003 | 93 | 126 | 0.9 | 3.5 | 0.00 | 0.00 | 0.00 | 63 | 1017.4 |
| 20260901155502 | 93 | 136 | 0.9 | 3.5 | 0.00 | 0.00 | 0.00 | 63 | 1017.3 |
| 20260901155003 | 94 | 138 | 0.9 | 3.5 | 0.00 | 0.00 | 0.00 | 63 | 1017.3 |
| 20260901154003 | 93 | 281 | 0.9 | 1.7 | 0.00 | 0.00 | 0.00 | 62 | 1017.4 |
| 20260901153503 | 93 | 270 | 0.9 | 3.5 | 0.00 | 0.00 | 0.00 | 63 | 1017.4 |
| 20260901153003 | 93 | 251 | 0.0 | 3.5 | 0.00 | 0.00 | 0.00 | 61 | 1017.4 |
| 20260901152502 | 92 | 239 | 0.0 | 4.3 | 0.00 | 0.00 | 0.00 | 62 | 1017.3 |
| 20260901152003 | 92 | 241 | 0.0 | 4.3 | 0.00 | 0.00 | 0.00 | 63 | 1017.3 |
| 20260901151503 | 92 | 159 | 0.0 | 2.6 | 0.00 | 0.00 | 0.00 | 65 | 1017.3 |
| 20260901151002 | 91 | 297 | 0.9 | 2.6 | 0.00 | 0.00 | 0.00 | 64 | 1017.5 |
| 20260901150502 | 91 | 310 | 0.0 | 2.6 | 0.00 | 0.00 | 0.00 | 67 | 1017.4 |
| 20260901150002 | 91 | 179 | 0.0 | 0.9 | 0.00 | 0.00 | 0.00 | 65 | 1017.4 |
| 20260901145002 | 90 | 200 | 0.0 | 1.7 | 0.00 | 0.00 | 0.00 | 68 | 1017.5 |
| 20260901144502 | 90 | 190 | 0.0 | 1.7 | 0.00 | 0.00 | 0.00 | 68 | 1017.6 |
| 20260901144002 | 89 | 136 | 0.0 | 1.7 | 0.00 | 0.00 | 0.00 | 69 | 1017.6 |
| 20260901143503 | 89 | 108 | 0.0 | 1.7 | 0.00 | 0.00 | 0.00 | 70 | 1017.7 |
| 20260901143002 | 88 | 152 | 0.0 | 1.7 | 0.00 | 0.00 | 0.00 | 70 | 1017.7 |
| 20260901142502 | 88 | 168 | 0.9 | 3.5 | 0.00 | 0.00 | 0.00 | 70 | 1017.8 |
| 20260901142003 | 88 | 177 | 0.9 | 3.5 | 0.00 | 0.00 | 0.00 | 70 | 1017.7 |
| 20260901141502 | 88 | 184 | 0.0 | 1.7 | 0.00 | 0.00 | 0.00 | 70 | 1017.6 |
| 20260901141003 | 87 | 168 | 0.0 | 0.9 | 0.00 | 0.00 | 0.00 | 71 | 1017.6 |
| 20260901140503 | 86 | 174 | 0.0 | 0.9 | 0.00 | 0.00 | 0.00 | 73 | 1017.5 |
| 20260901140003 | 86 | 175 | 0.0 | 0.9 | 0.00 | 0.00 | 0.00 | 73 | 1017.5 |
| 20260901135502 | 84 | 181 | 0.0 | 0.9 | 0.00 | 0.00 | 0.00 | 75 | 1017.7 |
| 20260901135002 | 83 | 181 | 0.0 | 0.9 | 0.00 | 0.00 | 0.00 | 76 | 1017.6 |
| 20260901134503 | 83 | 0 | 0.0 | 0.0 | 0.00 | 0.00 | 0.00 | 77 | 1017.7 |
| 20260901133503 | 81 | 0 | 0.0 | 0.0 | 0.00 | 0.00 | 0.00 | 79 | 1017.7 |
| 20260901133003 | 80 | 0 | 0.0 | 0.0 | 0.00 | 0.00 | 0.00 | 80 | 1017.6 |
| 20260901132502 | 80 | 0 | 0.0 | 0.0 | 0.00 | 0.00 | 0.00 | 80 | 1017.6 |
| 20260901132003 | 80 | 0 | 0.0 | 0.0 | 0.00 | 0.00 | 0.00 | 80 | 1017.5 |
| 20260901131502 | 80 | 0 | 0.0 | 0.0 | 0.00 | 0.00 | 0.00 | 81 | 1017.5 |
| 20260901131003 | 79 | 0 | 0.0 | 0.0 | 0.00 | 0.00 | 0.00 | 81 | 1017.5 |
| 20260901130503 | 79 | 0 | 0.0 | 0.0 | 0.00 | 0.00 | 0.00 | 81 | 1017.4 |
| 20260901130003 | 79 | 0 | 0.0 | 0.0 | 0.00 | 0.00 | 0.00 | 82 | 1017.4 |
| 20260901125503 | 78 | 0 | 0.0 | 0.0 | 0.00 | 0.00 | 0.00 | 82 | 1017.3 |
| 20260901125002 | 78 | 0 | 0.0 | 0.0 | 0.00 | 0.00 | 0.00 | 82 | 1017.3 |
| 20260901124503 | 78 | 139 | 0.0 | 0.9 | 0.00 | 0.00 | 0.00 | 83 | 1017.1 |
| 20260901124002 | 78 | 152 | 0.0 | 1.7 | 0.00 | 0.00 | 0.00 | 83 | 1017.1 |
| 20260901123502 | 77 | 155 | 0.0 | 1.7 | 0.00 | 0.00 | 0.00 | 83 | 1017.1 |
| 20260901123003 | 77 | 163 | 0.0 | 0.9 | 0.00 | 0.00 | 0.00 | 83 | 1017.0 |
| 20260901122503 | 77 | 0 | 0.0 | 0.0 | 0.00 | 0.00 | 0.00 | 82 | 1016.9 |
| 20260901122003 | 77 | 0 | 0.0 | 0.0 | 0.00 | 0.00 | 0.00 | 82 | 1016.9 |
| 20260901121503 | 77 | 0 | 0.0 | 0.0 | 0.00 | 0.00 | 0.00 | 82 | 1016.8 |
| 20260901121003 | 77 | 0 | 0.0 | 0.0 | 0.00 | 0.00 | 0.00 | 82 | 1016.8 |
| 20260901120003 | 77 | 0 | 0.0 | 0.0 | 0.00 | 0.00 | 0.00 | 81 | 1016.5 |
| 20260901115502 | 78 | 0 | 0.0 | 0.0 | 0.00 | 0.00 | 0.00 | 81 | 1016.5 |
| 20260901115003 | 78 | 0 | 0.0 | 0.0 | 0.00 | 0.00 | 0.00 | 80 | 1016.4 |
| 20260901114503 | 78 | 0 | 0.0 | 0.0 | 0.00 | 0.00 | 0.00 | 80 | 1016.4 |
| 20260901114003 | 78 | 0 | 0.0 | 0.0 | 0.00 | 0.00 | 0.00 | 80 | 1016.3 |
| 20260901113503 | 78 | 0 | 0.0 | 0.0 | 0.00 | 0.00 | 0.00 | 79 | 1016.3 |
| 20260901113003 | 78 | 0 | 0.0 | 0.0 | 0.00 | 0.00 | 0.00 | 80 | 1016.3 |
| 20260901112503 | 79 | 154 | 0.0 | 0.9 | 0.00 | 0.00 | 0.00 | 79 | 1016.3 |
| 20260901112003 | 79 | 154 | 0.0 | 0.9 | 0.00 | 0.00 | 0.00 | 79 | 1016.3 |
| 20260901111502 | 79 | 173 | 0.0 | 0.9 | 0.00 | 0.00 | 0.00 | 79 | 1016.3 |
| 20260901110503 | 79 | 173 | 0.0 | 0.9 | 0.00 | 0.00 | 0.00 | 78 | 1016.2 |
| 20260901110003 | 79 | 0 | 0.0 | 0.0 | 0.00 | 0.00 | 0.00 | 78 | 1016.2 |
| 20260901105503 | 79 | 0 | 0.0 | 0.0 | 0.00 | 0.00 | 0.00 | 78 | 1016.2 |
| 20260901105003 | 79 | 0 | 0.0 | 0.0 | 0.00 | 0.00 | 0.00 | 78 | 1016.2 |
| 20260901104503 | 79 | 0 | 0.0 | 0.0 | 0.00 | 0.00 | 0.00 | 77 | 1016.2 |
| 20260901103503 | 79 | 0 | 0.0 | 0.0 | 0.00 | 0.00 | 0.00 | 77 | 1016.2 |
| 20260901103002 | 79 | 173 | 0.0 | 0.9 | 0.00 | 0.00 | 0.00 | 76 | 1016.2 |
| 20260901102503 | 79 | 173 | 0.0 | 0.9 | 0.00 | 0.00 | 0.00 | 76 | 1016.2 |
| 20260901102003 | 79 | 0 | 0.0 | 0.0 | 0.00 | 0.00 | 0.00 | 76 | 1016.2 |
| 20260901101003 | 79 | 173 | 0.0 | 0.9 | 0.00 | 0.00 | 0.00 | 76 | 1016.3 |
| 20260901100503 | 79 | 173 | 0.0 | 0.9 | 0.00 | 0.00 | 0.00 | 75 | 1016.2 |
| 20260901100003 | 80 | 173 | 0.0 | 0.9 | 0.00 | 0.00 | 0.00 | 75 | 1016.3 |
| 20260901095503 | 80 | 173 | 0.0 | 0.9 | 0.00 | 0.00 | 0.00 | 75 | 1016.3 |
| 20260901095003 | 80 | 173 | 0.0 | 0.9 | 0.00 | 0.00 | 0.00 | 75 | 1016.2 |
| 20260901094503 | 80 | 0 | 0.0 | 0.0 | 0.00 | 0.00 | 0.00 | 74 | 1016.4 |
| 20260901094003 | 80 | 0 | 0.0 | 0.0 | 0.00 | 0.00 | 0.00 | 74 | 1016.4 |
| 20260901093504 | 80 | 173 | 0.0 | 0.9 | 0.00 | 0.00 | 0.00 | 74 | 1016.4 |
| 20260901093004 | 80 | 173 | 0.0 | 0.9 | 0.00 | 0.00 | 0.00 | 74 | 1016.4 |
| 20260901092003 | 80 | 173 | 0.0 | 0.9 | 0.00 | 0.00 | 0.00 | 73 | 1016.3 |
| 20260901091004 | 81 | 0 | 0.0 | 0.0 | 0.00 | 0.00 | 0.00 | 72 | 1016.3 |
| 20260901090503 | 81 | 159 | 0.0 | 1.7 | 0.00 | 0.00 | 0.00 | 72 | 1016.2 |
| 20260901090004 | 81 | 155 | 0.0 | 1.7 | 0.00 | 0.00 | 0.00 | 71 | 1016.2 |
| 20260901085503 | 81 | 170 | 0.0 | 0.9 | 0.00 | 0.00 | 0.00 | 71 | 1016.1 |
| 20260901085003 | 81 | 184 | 0.0 | 0.9 | 0.00 | 0.00 | 0.00 | 71 | 1016.1 |
| 20260901084503 | 81 | 192 | 0.0 | 1.7 | 0.00 | 0.00 | 0.00 | 71 | 1016.1 |
| 20260901084004 | 81 | 183 | 0.0 | 1.7 | 0.00 | 0.00 | 0.00 | 70 | 1016.1 |
| 20260901083503 | 82 | 139 | 0.0 | 0.9 | 0.00 | 0.00 | 0.00 | 70 | 1016.0 |
| 20260901083003 | 82 | 145 | 0.0 | 0.9 | 0.00 | 0.00 | 0.00 | 70 | 1016.0 |
| 20260901082503 | 82 | 161 | 0.0 | 1.7 | 0.00 | 0.00 | 0.00 | 69 | 1016.0 |
| 20260901081503 | 82 | 0 | 0.0 | 0.0 | 0.00 | 0.00 | 0.00 | 69 | 1016.0 |
| 20260901081003 | 82 | 165 | 0.0 | 0.9 | 0.00 | 0.00 | 0.00 | 68 | 1016.0 |
| 20260901080004 | 83 | 193 | 0.0 | 2.6 | 0.00 | 0.00 | 0.00 | 67 | 1015.9 |
| 20260901075003 | 83 | 181 | 0.0 | 1.7 | 0.00 | 0.00 | 0.00 | 67 | 1015.9 |
| 20260901074503 | 83 | 175 | 0.0 | 2.6 | 0.00 | 0.00 | 0.00 | 67 | 1015.9 |
| 20260901074004 | 83 | 176 | 0.0 | 2.6 | 0.00 | 0.00 | 0.00 | 67 | 1015.9 |
| 20260901073503 | 84 | 178 | 0.0 | 1.7 | 0.00 | 0.00 | 0.00 | 67 | 1015.9 |
| 20260901073004 | 84 | 178 | 0.0 | 1.7 | 0.00 | 0.00 | 0.00 | 67 | 1016.1 |
| 20260901072503 | 84 | 176 | 0.0 | 1.7 | 0.00 | 0.00 | 0.00 | 67 | 1016.0 |
| 20260901072003 | 84 | 167 | 0.0 | 1.7 | 0.00 | 0.00 | 0.00 | 67 | 1015.9 |
| 20260901071504 | 84 | 168 | 0.0 | 1.7 | 0.00 | 0.00 | 0.00 | 67 | 1015.9 |
| 20260901071003 | 84 | 173 | 0.0 | 2.6 | 0.00 | 0.00 | 0.00 | 66 | 1015.9 |
| 20260901070503 | 84 | 167 | 0.0 | 2.6 | 0.00 | 0.00 | 0.00 | 66 | 1015.9 |
| 20260901065503 | 84 | 156 | 0.0 | 0.9 | 0.00 | 0.00 | 0.00 | 66 | 1015.9 |
| 20260901065003 | 84 | 154 | 0.0 | 1.7 | 0.00 | 0.00 | 0.00 | 66 | 1015.9 |
| 20260901063503 | 84 | 159 | 0.0 | 1.7 | 0.00 | 0.00 | 0.00 | 65 | 1015.8 |
| 20260901063003 | 85 | 155 | 0.0 | 1.7 | 0.00 | 0.00 | 0.00 | 65 | 1015.8 |
| 20260901062504 | 85 | 151 | 0.0 | 1.7 | 0.00 | 0.00 | 0.00 | 65 | 1015.8 |
| 20260901062004 | 85 | 158 | 0.0 | 1.7 | 0.00 | 0.00 | 0.00 | 64 | 1015.7 |
| 20260901061503 | 85 | 158 | 0.0 | 2.6 | 0.00 | 0.00 | 0.00 | 64 | 1015.7 |
| 20260901061004 | 85 | 159 | 0.0 | 2.6 | 0.00 | 0.00 | 0.00 | 65 | 1015.6 |
| 20260901060503 | 85 | 152 | 0.0 | 0.9 | 0.00 | 0.00 | 0.00 | 65 | 1015.6 |
| 20260901060003 | 85 | 137 | 0.0 | 0.9 | 0.00 | 0.00 | 0.00 | 65 | 1015.5 |
| 20260901055003 | 86 | 147 | 0.0 | 2.6 | 0.00 | 0.00 | 0.00 | 64 | 1015.4 |
| 20260901054504 | 85 | 155 | 0.0 | 2.6 | 0.00 | 0.00 | 0.00 | 64 | 1015.4 |
| 20260901053504 | 86 | 175 | 0.0 | 2.6 | 0.00 | 0.00 | 0.00 | 65 | 1015.4 |
| 20260901053003 | 86 | 148 | 0.0 | 2.6 | 0.00 | 0.00 | 0.00 | 66 | 1015.2 |
| 20260901052503 | 86 | 148 | 0.0 | 2.6 | 0.00 | 0.00 | 0.00 | 66 | 1015.3 |
| 20260901052001 | 86 | 169 | 0.0 | 1.7 | 0.00 | 0.00 | 0.00 | 65 | 1015.3 |
| 20260901051501 | 86 | 153 | 0.0 | 1.7 | 0.00 | 0.00 | 0.00 | 64 | 1015.3 |
| 20260901050501 | 86 | 136 | 0.0 | 1.7 | 0.00 | 0.00 | 0.00 | 63 | 1015.0 |
| 20260901050002 | 85 | 149 | 0.0 | 1.7 | 0.00 | 0.00 | 0.00 | 63 | 1015.1 |
| 20260901045501 | 85 | 146 | 0.0 | 1.7 | 0.00 | 0.00 | 0.00 | 63 | 1015.0 |
| 20260901044501 | 85 | 97 | 0.0 | 0.9 | 0.00 | 0.00 | 0.00 | 64 | 1014.9 |
| 20260901044001 | 85 | 97 | 0.0 | 0.9 | 0.00 | 0.00 | 0.00 | 64 | 1014.9 |
| 20260901043001 | 85 | 0 | 0.0 | 0.0 | 0.00 | 0.00 | 0.00 | 64 | 1014.9 |
| 20260901042501 | 85 | 0 | 0.0 | 0.0 | 0.00 | 0.00 | 0.00 | 64 | 1014.9 |
| 20260901042001 | 85 | 0 | 0.0 | 0.0 | 0.00 | 0.00 | 0.00 | 65 | 1014.8 |
| 20260901041502 | 85 | 124 | 0.0 | 1.7 | 0.00 | 0.00 | 0.00 | 65 | 1014.9 |
| 20260901041002 | 85 | 125 | 0.0 | 1.7 | 0.00 | 0.00 | 0.00 | 65 | 1015.0 |
| 20260901040502 | 85 | 142 | 0.0 | 0.9 | 0.00 | 0.00 | 0.00 | 66 | 1015.0 |
| 20260901040001 | 85 | 0 | 0.0 | 0.0 | 0.00 | 0.00 | 0.00 | 60 | 1014.8 |
| 20260901035501 | 86 | 0 | 0.0 | 0.0 | 0.00 | 0.00 | 0.00 | 58 | 1014.7 |
| 20260901035001 | 86 | 0 | 0.0 | 0.0 | 0.00 | 0.00 | 0.00 | 58 | 1014.8 |
| 20260901034501 | 86 | 0 | 0.0 | 0.0 | 0.00 | 0.00 | 0.00 | 57 | 1014.8 |
| 20260901033501 | 86 | 0 | 0.0 | 0.0 | 0.00 | 0.00 | 0.00 | 56 | 1014.7 |
| 20260901033001 | 87 | 0 | 0.0 | 0.0 | 0.00 | 0.00 | 0.00 | 56 | 1014.8 |
| 20260901032001 | 87 | 0 | 0.0 | 0.0 | 0.00 | 0.00 | 0.00 | 55 | 1014.8 |
| 20260901031501 | 87 | 0 | 0.0 | 0.0 | 0.00 | 0.00 | 0.00 | 55 | 1014.7 |
| 20260901031001 | 87 | 0 | 0.0 | 0.0 | 0.00 | 0.00 | 0.00 | 55 | 1014.7 |
| 20260901030501 | 88 | 0 | 0.0 | 0.0 | 0.00 | 0.00 | 0.00 | 55 | 1014.6 |
| 20260901030001 | 88 | 0 | 0.0 | 0.0 | 0.00 | 0.00 | 0.00 | 54 | 1014.6 |
| 20260901025002 | 88 | 0 | 0.0 | 0.0 | 0.00 | 0.00 | 0.00 | 54 | 1014.4 |
| 20260901024001 | 89 | 0 | 0.0 | 0.0 | 0.00 | 0.00 | 0.00 | 53 | 1014.2 |
| 20260901023002 | 89 | 166 | 0.0 | 0.9 | 0.00 | 0.00 | 0.00 | 53 | 1014.1 |
| 20260901022501 | 89 | 166 | 0.0 | 0.9 | 0.00 | 0.00 | 0.00 | 52 | 1014.0 |
| 20260901022002 | 89 | 0 | 0.0 | 0.0 | 0.00 | 0.00 | 0.00 | 52 | 1013.9 |
| 20260901021502 | 89 | 0 | 0.0 | 0.0 | 0.00 | 0.00 | 0.00 | 51 | 1014.0 |
| 20260901021002 | 89 | 0 | 0.0 | 0.0 | 0.00 | 0.00 | 0.00 | 51 | 1013.9 |
| 20260901020002 | 90 | 0 | 0.0 | 0.0 | 0.00 | 0.00 | 0.00 | 50 | 1013.8 |
| 20260901015002 | 90 | 0 | 0.0 | 0.0 | 0.00 | 0.00 | 0.00 | 50 | 1013.7 |
| 20260901014501 | 91 | 0 | 0.0 | 0.0 | 0.00 | 0.00 | 0.00 | 49 | 1013.8 |
| 20260901014002 | 91 | 0 | 0.0 | 0.0 | 0.00 | 0.00 | 0.00 | 49 | 1013.8 |
| 20260901013501 | 91 | 0 | 0.0 | 0.0 | 0.00 | 0.00 | 0.00 | 48 | 1013.7 |
| 20260901013002 | 92 | 0 | 0.0 | 0.0 | 0.00 | 0.00 | 0.00 | 48 | 1013.7 |
| 20260901012002 | 93 | 0 | 0.0 | 0.0 | 0.00 | 0.00 | 0.00 | 47 | 1013.8 |
| 20260901011501 | 93 | 161 | 0.0 | 0.9 | 0.00 | 0.00 | 0.00 | 46 | 1013.7 |
| 20260901011002 | 93 | 161 | 0.0 | 0.9 | 0.00 | 0.00 | 0.00 | 46 | 1013.6 |
| 20260901010501 | 94 | 166 | 0.0 | 1.7 | 0.00 | 0.00 | 0.00 | 46 | 1013.6 |
| 20260901010002 | 94 | 167 | 0.0 | 1.7 | 0.00 | 0.00 | 0.00 | 45 | 1013.6 |
| 20260901005501 | 94 | 147 | 0.0 | 0.9 | 0.00 | 0.00 | 0.00 | 45 | 1013.6 |
| 20260901005002 | 95 | 154 | 0.0 | 0.9 | 0.00 | 0.00 | 0.00 | 44 | 1013.6 |
| 20260901004502 | 95 | 148 | 0.0 | 2.6 | 0.00 | 0.00 | 0.00 | 44 | 1013.6 |
| 20260901004001 | 96 | 144 | 0.0 | 2.6 | 0.00 | 0.00 | 0.00 | 44 | 1013.6 |
| 20260901003501 | 96 | 172 | 0.0 | 2.6 | 0.00 | 0.00 | 0.00 | 44 | 1013.5 |
| 20260901003002 | 97 | 170 | 0.9 | 3.5 | 0.00 | 0.00 | 0.00 | 43 | 1013.5 |
| 20260901002501 | 98 | 156 | 0.9 | 3.5 | 0.00 | 0.00 | 0.00 | 43 | 1013.5 |
| 20260901002002 | 98 | 146 | 0.0 | 2.6 | 0.00 | 0.00 | 0.00 | 43 | 1013.6 |
| 20260901001502 | 99 | 159 | 0.0 | 2.6 | 0.00 | 0.00 | 0.00 | 44 | 1013.5 |
| 20260901001001 | 100 | 147 | 0.0 | 1.7 | 0.00 | 0.00 | 0.00 | 43 | 1013.5 |
| 20260901000502 | 100 | 145 | 0.9 | 4.3 | 0.00 | 0.00 | 0.00 | 43 | 1013.6 |
| 20260901000002 | 100 | 156 | 0.9 | 5.2 | 0.00 | 0.00 | 0.00 | 41 | 1013.6 |
| 20260831235501 | 101 | 162 | 0.9 | 5.2 | 0.00 | 0.00 | 0.00 | 40 | 1013.6 |
| 20260831235002 | 101 | 161 | 0.9 | 3.5 | 0.00 | 0.00 | 0.00 | 38 | 1013.5 |
| 20260831234501 | 101 | 172 | 0.9 | 4.3 | 0.00 | 0.00 | 0.00 | 38 | 1013.6 |
| 20260831234002 | 101 | 176 | 1.7 | 4.3 | 0.00 | 0.00 | 0.00 | 39 | 1013.6 |
| 20260831233002 | 101 | 157 | 0.9 | 3.5 | 0.00 | 0.00 | 0.00 | 38 | 1013.5 |
| 20260831232502 | 102 | 176 | 0.9 | 2.6 | 0.00 | 0.00 | 0.00 | 38 | 1013.5 |
| 20260831231502 | 102 | 161 | 0.0 | 3.5 | 0.00 | 0.00 | 0.00 | 37 | 1013.5 |
| 20260831231002 | 102 | 167 | 0.9 | 3.5 | 0.00 | 0.00 | 0.00 | 37 | 1013.5 |
| 20260831230502 | 102 | 135 | 0.9 | 3.5 | 0.00 | 0.00 | 0.00 | 37 | 1013.5 |
| 20260831230001 | 102 | 143 | 0.9 | 5.2 | 0.00 | 0.00 | 0.00 | 38 | 1013.6 |
| 20260831225501 | 102 | 152 | 1.7 | 5.2 | 0.00 | 0.00 | 0.00 | 38 | 1013.6 |
| 20260831225002 | 103 | 151 | 1.7 | 4.3 | 0.00 | 0.00 | 0.00 | 38 | 1013.6 |
| 20260831224002 | 103 | 184 | 1.7 | 5.2 | 0.00 | 0.00 | 0.00 | 36 | 1013.7 |
| 20260831223501 | 103 | 202 | 1.7 | 5.2 | 0.00 | 0.00 | 0.00 | 35 | 1013.7 |
| 20260831223002 | 103 | 208 | 1.7 | 7.0 | 0.00 | 0.00 | 0.00 | 35 | 1013.7 |
| 20260831222502 | 103 | 198 | 1.7 | 7.0 | 0.00 | 0.00 | 0.00 | 34 | 1013.9 |
| 20260831222001 | 104 | 187 | 0.9 | 4.3 | 0.00 | 0.00 | 0.00 | 34 | 1013.9 |
| 20260831221502 | 104 | 184 | 1.7 | 7.0 | 0.00 | 0.00 | 0.00 | 36 | 1013.8 |
| 20260831221002 | 103 | 181 | 1.7 | 7.0 | 0.00 | 0.00 | 0.00 | 35 | 1013.9 |
| 20260831220502 | 103 | 179 | 1.7 | 4.3 | 0.00 | 0.00 | 0.00 | 35 | 1013.8 |
| 20260831215502 | 103 | 190 | 0.9 | 5.2 | 0.00 | 0.00 | 0.00 | 36 | 1013.9 |
| 20260831215002 | 103 | 191 | 2.6 | 8.7 | 0.00 | 0.00 | 0.00 | 36 | 1014.0 |
| 20260831214501 | 102 | 189 | 2.6 | 8.7 | 0.00 | 0.00 | 0.00 | 36 | 1014.1 |
| 20260831214002 | 102 | 195 | 1.7 | 8.7 | 0.00 | 0.00 | 0.00 | 36 | 1014.1 |
| 20260831212502 | 103 | 177 | 0.9 | 6.1 | 0.00 | 0.00 | 0.00 | 36 | 1014.2 |
| 20260831212002 | 103 | 188 | 1.7 | 7.0 | 0.00 | 0.00 | 0.00 | 36 | 1014.3 |
| 20260831211001 | 103 | 173 | 2.6 | 6.1 | 0.00 | 0.00 | 0.00 | 36 | 1014.3 |
| 20260831210502 | 103 | 178 | 2.6 | 6.1 | 0.00 | 0.00 | 0.00 | 36 | 1014.4 |
| 20260831210002 | 103 | 188 | 2.6 | 5.2 | 0.00 | 0.00 | 0.00 | 36 | 1014.4 |
| 20260831205002 | 103 | 166 | 0.9 | 6.1 | 0.00 | 0.00 | 0.00 | 37 | 1014.6 |
| 20260831204502 | 103 | 191 | 1.7 | 7.8 | 0.00 | 0.00 | 0.00 | 38 | 1014.6 |
| 20260831204002 | 103 | 171 | 1.7 | 7.8 | 0.00 | 0.00 | 0.00 | 38 | 1014.8 |
| 20260831203501 | 103 | 94 | 0.9 | 4.3 | 0.00 | 0.00 | 0.00 | 39 | 1014.8 |
| 20260831203002 | 102 | 77 | 0.9 | 5.2 | 0.00 | 0.00 | 0.00 | 40 | 1014.8 |
| 20260831202503 | 102 | 95 | 1.7 | 6.1 | 0.00 | 0.00 | 0.00 | 42 | 1015.0 |
| 20260831202002 | 102 | 104 | 1.7 | 6.1 | 0.00 | 0.00 | 0.00 | 41 | 1015.1 |
| 20260831201502 | 102 | 92 | 0.9 | 5.2 | 0.00 | 0.00 | 0.00 | 40 | 1015.1 |
| 20260831201002 | 103 | 98 | 0.9 | 3.5 | 0.00 | 0.00 | 0.00 | 40 | 1015.2 |
| 20260831200502 | 103 | 158 | 0.9 | 7.0 | 0.00 | 0.00 | 0.00 | 37 | 1015.2 |
| 20260831200002 | 103 | 155 | 1.7 | 7.0 | 0.00 | 0.00 | 0.00 | 39 | 1015.4 |
| 20260831195502 | 102 | 145 | 1.7 | 5.2 | 0.00 | 0.00 | 0.00 | 40 | 1015.4 |
| 20260831195002 | 102 | 165 | 1.7 | 6.1 | 0.00 | 0.00 | 0.00 | 40 | 1015.5 |
| 20260831194502 | 101 | 167 | 0.9 | 6.1 | 0.00 | 0.00 | 0.00 | 40 | 1015.5 |
| 20260831194002 | 102 | 156 | 0.9 | 3.5 | 0.00 | 0.00 | 0.00 | 40 | 1015.6 |
| 20260831193502 | 101 | 139 | 1.7 | 4.3 | 0.00 | 0.00 | 0.00 | 41 | 1015.7 |
| 20260831193003 | 100 | 123 | 0.9 | 4.3 | 0.00 | 0.00 | 0.00 | 43 | 1015.8 |
| 20260831192002 | 98 | 102 | 0.0 | 2.6 | 0.00 | 0.00 | 0.00 | 44 | 1015.9 |
| 20260831191503 | 98 | 98 | 0.0 | 2.6 | 0.00 | 0.00 | 0.00 | 45 | 1015.9 |
| 20260831191002 | 99 | 126 | 0.0 | 4.3 | 0.00 | 0.00 | 0.00 | 45 | 1016.0 |
| 20260831190503 | 100 | 169 | 0.9 | 6.1 | 0.00 | 0.00 | 0.00 | 44 | 1016.1 |
| 20260831190003 | 101 | 176 | 1.7 | 6.1 | 0.00 | 0.00 | 0.00 | 42 | 1016.0 |
| 20260831185502 | 102 | 182 | 2.6 | 7.8 | 0.00 | 0.00 | 0.00 | 42 | 1016.1 |
| 20260831185002 | 102 | 173 | 2.6 | 7.8 | 0.00 | 0.00 | 0.00 | 43 | 1016.2 |
| 20260831183503 | 102 | 138 | 0.9 | 4.3 | 0.00 | 0.00 | 0.00 | 42 | 1016.2 |
| 20260831182502 | 101 | 135 | 0.9 | 3.5 | 0.00 | 0.00 | 0.00 | 46 | 1016.4 |
| 20260831181002 | 100 | 161 | 0.9 | 6.1 | 0.00 | 0.00 | 0.00 | 44 | 1016.6 |
| 20260831180502 | 100 | 168 | 0.9 | 4.3 | 0.00 | 0.00 | 0.00 | 46 | 1016.7 |
| 20260831180002 | 100 | 170 | 1.7 | 6.1 | 0.00 | 0.00 | 0.00 | 45 | 1016.7 |